TimeCST,TemperatureF,Dew PointF,Humidity,Sea Level PressureIn,VisibilityMPH,Wind Direction,Wind SpeedMPH,Gust SpeedMPH,PrecipitationIn,Events,Conditions,WindDirDegrees,DateUTC
12:15 AM,28.4,17.6,64,30.34,10.0,SW,9.2,-,N/A,,Clear,230,2012-12-30 06:15:00
12:35 AM,28.4,17.6,64,30.35,10.0,SW,9.2,-,N/A,,Clear,220,2012-12-30 06:35:00
12:55 AM,28.4,15.8,59,30.36,10.0,SW,9.2,-,N/A,,Clear,230,2012-12-30 06:55:00
1:15 AM,28.4,15.8,59,30.36,10.0,SW,9.2,-,N/A,,Clear,220,2012-12-30 07:15:00
1:35 AM,28.4,15.8,59,30.36,10.0,SW,8.1,-,N/A,,Clear,220,2012-12-30 07:35:00
1:55 AM,28.4,15.8,59,30.36,10.0,SW,8.1,-,N/A,,Clear,220,2012-12-30 07:55:00
2:15 AM,28.4,15.8,59,30.36,10.0,SW,9.2,-,N/A,,Clear,220,2012-12-30 08:15:00
2:35 AM,28.4,15.8,59,30.37,10.0,SW,9.2,-,N/A,,Clear,220,2012-12-30 08:35:00
2:55 AM,28.4,15.8,59,30.38,10.0,SW,8.1,-,N/A,,Clear,230,2012-12-30 08:55:00
3:15 AM,28.4,15.8,59,30.37,10.0,SW,8.1,-,N/A,,Clear,220,2012-12-30 09:15:00
3:35 AM,28.4,15.8,59,30.36,10.0,SW,8.1,-,N/A,,Clear,220,2012-12-30 09:35:00
7:35 AM,28.4,17.6,64,30.39,10.0,SSW,8.1,-,N/A,,Clear,210,2012-12-30 13:35:00
7:55 AM,28.4,17.6,64,30.38,10.0,SSW,8.1,-,N/A,,Clear,210,2012-12-30 13:55:00
8:15 AM,30.2,17.6,60,30.38,10.0,SSW,6.9,-,N/A,,Clear,200,2012-12-30 14:15:00
8:35 AM,30.2,17.6,60,30.38,10.0,South,4.6,-,N/A,,Clear,190,2012-12-30 14:35:00
8:55 AM,32.0,17.6,55,30.38,10.0,SE,3.5,-,N/A,,Clear,140,2012-12-30 14:55:00
9:15 AM,32.0,19.4,60,30.38,10.0,Calm,Calm,-,N/A,,Clear,0,2012-12-30 15:15:00
9:35 AM,33.8,19.4,56,30.38,10.0,SSW,5.8,-,N/A,,Clear,200,2012-12-30 15:35:00
9:55 AM,35.6,19.4,52,30.39,10.0,SSW,8.1,-,N/A,,Clear,210,2012-12-30 15:55:00
10:15 AM,35.6,19.4,52,30.40,10.0,SSW,9.2,-,N/A,,Clear,200,2012-12-30 16:15:00
10:35 AM,37.4,19.4,48,30.40,10.0,SSW,10.4,-,N/A,,Clear,210,2012-12-30 16:35:00
10:55 AM,39.2,21.2,49,30.39,10.0,SSW,11.5,16.1,N/A,,Clear,200,2012-12-30 16:55:00
11:15 AM,39.2,21.2,49,30.38,10.0,South,10.4,-,N/A,,Clear,190,2012-12-30 17:15:00
11:35 AM,41.0,21.2,45,30.36,10.0,South,8.1,-,N/A,,Clear,170,2012-12-30 17:35:00
11:55 AM,41.0,19.4,42,30.34,10.0,South,13.8,17.3,N/A,,Clear,180,2012-12-30 17:55:00
12:15 PM,42.8,17.6,36,30.33,10.0,South,13.8,18.4,N/A,,Clear,190,2012-12-30 18:15:00
12:35 PM,42.8,17.6,36,30.31,10.0,SSW,10.4,16.1,N/A,,Clear,210,2012-12-30 18:35:00
12:55 PM,42.8,14.0,31,30.30,10.0,South,10.4,-,N/A,,Clear,190,2012-12-30 18:55:00
1:15 PM,42.8,14.0,31,30.29,10.0,SSW,8.1,-,N/A,,Clear,200,2012-12-30 19:15:00
1:35 PM,44.6,14.0,29,30.29,10.0,South,15.0,20.7,N/A,,Clear,190,2012-12-30 19:35:00
1:55 PM,44.6,12.2,27,30.29,10.0,South,15.0,19.6,N/A,,Clear,190,2012-12-30 19:55:00
2:15 PM,44.6,12.2,27,30.28,10.0,SSW,15.0,20.7,N/A,,Clear,200,2012-12-30 20:15:00
2:35 PM,44.6,12.2,27,30.28,10.0,SSW,13.8,19.6,N/A,,Clear,200,2012-12-30 20:35:00
2:55 PM,44.6,12.2,27,30.29,10.0,South,12.7,19.6,N/A,,Clear,190,2012-12-30 20:55:00
3:15 PM,42.8,12.2,29,30.28,10.0,South,10.4,-,N/A,,Clear,170,2012-12-30 21:15:00
3:35 PM,42.8,14.0,31,30.26,10.0,South,17.3,20.7,N/A,,Clear,180,2012-12-30 21:35:00
3:55 PM,42.8,14.0,31,30.27,10.0,South,9.2,-,N/A,,Clear,170,2012-12-30 21:55:00
4:15 PM,41.0,14.0,33,30.26,10.0,South,9.2,-,N/A,,Clear,170,2012-12-30 22:15:00
4:35 PM,41.0,14.0,33,30.27,10.0,South,9.2,-,N/A,,Clear,180,2012-12-30 22:35:00
4:55 PM,41.0,14.0,33,30.26,10.0,SSE,6.9,-,N/A,,Clear,160,2012-12-30 22:55:00
5:15 PM,39.2,14.0,36,30.26,10.0,SSE,5.8,-,N/A,,Clear,150,2012-12-30 23:15:00
5:35 PM,37.4,15.8,41,30.25,10.0,SSE,8.1,-,N/A,,Clear,160,2012-12-30 23:35:00
5:55 PM,37.4,15.8,41,30.25,10.0,SSE,6.9,-,N/A,,Clear,160,2012-12-30 23:55:00
6:15 PM,37.4,17.6,45,30.25,10.0,South,5.8,-,N/A,,Clear,170,2012-12-31 00:15:00
6:35 PM,37.4,17.6,45,30.24,10.0,SSE,6.9,-,N/A,,Clear,150,2012-12-31 00:35:00
6:55 PM,35.6,17.6,48,30.24,10.0,SSE,6.9,-,N/A,,Clear,160,2012-12-31 00:55:00
7:15 PM,35.6,17.6,48,30.24,10.0,SSE,6.9,-,N/A,,Clear,160,2012-12-31 01:15:00
7:35 PM,35.6,17.6,48,30.23,10.0,SSE,8.1,-,N/A,,Clear,150,2012-12-31 01:35:00
7:55 PM,35.6,19.4,52,30.23,10.0,SSE,9.2,-,N/A,,Clear,160,2012-12-31 01:55:00
8:15 PM,35.6,19.4,52,30.22,10.0,SSE,9.2,-,N/A,,Clear,160,2012-12-31 02:15:00
8:35 PM,35.6,19.4,52,30.22,10.0,SSE,8.1,-,N/A,,Clear,160,2012-12-31 02:35:00
8:55 PM,35.6,19.4,52,30.21,10.0,SSE,8.1,-,N/A,,Clear,150,2012-12-31 02:55:00
9:15 PM,35.6,19.4,52,30.20,10.0,SSE,9.2,-,N/A,,Clear,160,2012-12-31 03:15:00
9:35 PM,35.6,19.4,52,30.20,10.0,SSE,10.4,-,N/A,,Clear,160,2012-12-31 03:35:00
9:55 PM,35.6,19.4,52,30.20,10.0,SSE,6.9,-,N/A,,Clear,160,2012-12-31 03:55:00
10:15 PM,35.6,17.6,48,30.20,10.0,SSE,8.1,-,N/A,,Clear,160,2012-12-31 04:15:00
10:35 PM,35.6,17.6,48,30.19,10.0,SSE,8.1,-,N/A,,Clear,160,2012-12-31 04:35:00
10:55 PM,35.6,17.6,48,30.20,10.0,SSE,6.9,-,N/A,,Clear,160,2012-12-31 04:55:00
11:15 PM,35.6,17.6,48,30.20,10.0,SSE,5.8,-,N/A,,Clear,160,2012-12-31 05:15:00
11:35 PM,35.6,17.6,48,30.20,10.0,South,6.9,-,N/A,,Clear,170,2012-12-31 05:35:00
11:55 PM,35.6,17.6,48,30.21,10.0,South,6.9,-,N/A,,Clear,180,2012-12-31 05:55:00